"Sample Date","Sample Time","Sensor Name","Sample Value","Units","Flow Rate","Sample Interval","Sample Volume","Laser Status","Number Channels","Micron Size 0","Counts/Channel 0","Micron Size 1","Counts/Channel 1","Micron Size 2","Counts/Channel 2","Micron Size 3","Counts/Channel 3","Micron Size 4","Counts/Channel 4","Micron Size 5","Counts/Channel 5","Micron Size 6","Counts/Channel 6","Micron Size 7","Counts/Channel 7","Micron Size 8","Counts/Channel 8","Micron Size 9","Counts/Channel 9","Micron Size 10","Counts/Channel 10","Micron Size 11","Counts/Channel 11","Micron Size 12","Counts/Channel 12","Micron Size 13","Counts/Channel 13","Micron Size 14","Counts/Channel 14","Micron Size 15","Counts/Channel 15","Micron Size 16","Counts/Channel 16","Micron Size 17","Counts/Channel 17","Micron Size 18","Counts/Channel 18","Micron Size 19","Counts/Channel 19","Micron Size 20","Counts/Channel 20","Micron Size 21","Counts/Channel 21","Micron Size 22","Counts/Channel 22","Micron Size 23","Counts/Channel 23","Micron Size 24","Counts/Channel 24","Micron Size 25","Counts/Channel 25","Micron Size 26","Counts/Channel 26","Micron Size 27","Counts/Channel 27","Micron Size 28","Counts/Channel 28","Micron Size 29","Counts/Channel 29","Micron Size 30","Counts/Channel 30","Micron Size 31","Counts/Channel 31"
"07/04/06","12:00:01","AMMA06",61892.000,"cc",28369.066,6.00,2836.907,1,6,0.100,34137.000,0.200,23530.000,0.300,2862.000,0.500,807.000,1.000,554.000,5.000,2.000
"07/04/06","12:00:07","AMMA06",61361.000,"cc",28296.844,6.00,2829.685,1,6,0.100,33835.000,0.200,23442.000,0.300,2816.000,0.500,768.000,1.000,500.000,5.000,0
"07/04/06","12:00:13","AMMA06",62121.000,"cc",28325.082,6.00,2832.508,1,6,0.100,34228.000,0.200,23595.000,0.300,2896.000,0.500,854.000,1.000,545.000,5.000,3.000
"07/04/06","12:00:19","AMMA06",61998.000,"cc",28313.965,6.00,2831.397,1,6,0.100,34304.000,0.200,23528.000,0.300,2777.000,0.500,860.000,1.000,526.000,5.000,3.000
"07/04/06","12:00:25","AMMA06",61875.000,"cc",28256.551,6.00,2825.655,1,6,0.100,34203.000,0.200,23501.000,0.300,2788.000,0.500,849.000,1.000,533.000,5.000,1.000
"07/04/06","12:00:31","AMMA06",62152.000,"cc",28310.426,6.00,2831.043,1,6,0.100,34340.000,0.200,23679.000,0.300,2792.000,0.500,806.000,1.000,535.000,5.000,0
"07/04/06","12:00:37","AMMA06",61512.000,"cc",28299.711,6.00,2829.971,1,6,0.100,33660.000,0.200,23713.000,0.300,2803.000,0.500,811.000,1.000,525.000,5.000,0
"07/04/06","12:00:43","AMMA06",61887.000,"cc",28343.936,6.00,2834.394,1,6,0.100,34088.000,0.200,23606.000,0.300,2779.000,0.500,858.000,1.000,554.000,5.000,2.000
"07/04/06","12:00:49","AMMA06",62430.000,"cc",28353.650,6.00,2835.365,1,6,0.100,34298.000,0.200,23969.000,0.300,2799.000,0.500,820.000,1.000,543.000,5.000,1.000
"07/04/06","12:00:55","AMMA06",61882.000,"cc",28252.488,6.00,2825.249,1,6,0.100,34267.000,0.200,23454.000,0.300,2762.000,0.500,844.000,1.000,553.000,5.000,2.000
"07/04/06","12:01:01","AMMA06",61978.000,"cc",28334.004,6.00,2833.401,1,6,0.100,34474.000,0.200,23403.000,0.300,2743.000,0.500,841.000,1.000,516.000,5.000,1.000
"07/04/06","12:01:07","AMMA06",62325.000,"cc",28306.147,6.00,2830.615,1,6,0.100,34657.000,0.200,23460.000,0.300,2774.000,0.500,844.000,1.000,589.000,5.000,1.000
"07/04/06","12:01:13","AMMA06",61872.000,"cc",28353.455,6.00,2835.346,1,6,0.100,34435.000,0.200,23280.000,0.300,2779.000,0.500,803.000,1.000,575.000,5.000,0
"07/04/06","12:01:19","AMMA06",61777.000,"cc",28313.180,6.00,2831.318,1,6,0.100,34403.000,0.200,23177.000,0.300,2819.000,0.500,831.000,1.000,547.000,5.000,0
"07/04/06","12:01:25","AMMA06",61905.000,"cc",28303.119,6.00,2830.312,1,6,0.100,34433.000,0.200,23354.000,0.300,2774.000,0.500,822.000,1.000,521.000,5.000,1.000
"07/04/06","12:01:31","AMMA06",62401.000,"cc",28285.723,6.00,2828.573,1,6,0.100,34911.000,0.200,23398.000,0.300,2668.000,0.500,851.000,1.000,572.000,5.000,1.000
"07/04/06","12:01:37","AMMA06",61342.000,"cc",28364.984,6.00,2836.499,1,6,0.100,34256.000,0.200,23004.000,0.300,2715.000,0.500,799.000,1.000,568.000,5.000,0
"07/04/06","12:01:43","AMMA06",61787.000,"cc",28300.795,6.00,2830.080,1,6,0.100,34439.000,0.200,23313.000,0.300,2726.000,0.500,824.000,1.000,485.000,5.000,0
"07/04/06","12:01:49","AMMA06",62083.000,"cc",28386.420,6.00,2838.642,1,6,0.100,34520.000,0.200,23508.000,0.300,2715.000,0.500,804.000,1.000,536.000,5.000,0
"07/04/06","12:01:55","AMMA06",62255.000,"cc",28299.197,6.00,2829.920,1,6,0.100,34525.000,0.200,23595.000,0.300,2809.000,0.500,799.000,1.000,526.000,5.000,1.000
"07/04/06","12:02:01","AMMA06",61866.000,"cc",28262.520,6.00,2826.252,1,6,0.100,34371.000,0.200,23399.000,0.300,2738.000,0.500,841.000,1.000,517.000,5.000,0
"07/04/06","12:02:07","AMMA06",62215.000,"cc",28293.160,6.00,2829.316,1,6,0.100,34518.000,0.200,23504.000,0.300,2766.000,0.500,876.000,1.000,550.000,5.000,1.000
"07/04/06","12:02:13","AMMA06",62648.000,"cc",28343.658,6.00,2834.366,1,6,0.100,34794.000,0.200,23749.000,0.300,2800.000,0.500,741.000,1.000,563.000,5.000,1.000
"07/04/06","12:02:19","AMMA06",61984.000,"cc",28337.264,6.00,2833.727,1,6,0.100,34218.000,0.200,23548.000,0.300,2799.000,0.500,838.000,1.000,578.000,5.000,3.000
"07/04/06","12:02:25","AMMA06",62264.000,"cc",28337.420,6.00,2833.742,1,6,0.100,34545.000,0.200,23598.000,0.300,2738.000,0.500,843.000,1.000,537.000,5.000,3.000
"07/04/06","12:02:31","AMMA06",61932.000,"cc",28319.785,6.00,2831.979,1,6,0.100,34088.000,0.200,23625.000,0.300,2801.000,0.500,831.000,1.000,586.000,5.000,1.000
"07/04/06","12:02:37","AMMA06",61900.000,"cc",28331.402,6.00,2833.140,1,6,0.100,33905.000,0.200,23884.000,0.300,2777.000,0.500,824.000,1.000,510.000,5.000,0
"07/04/06","12:02:43","AMMA06",62265.000,"cc",28308.680,6.00,2830.868,1,6,0.100,34292.000,0.200,23692.000,0.300,2876.000,0.500,895.000,1.000,510.000,5.000,0
"07/04/06","12:02:49","AMMA06",62642.000,"cc",28273.307,6.00,2827.331,1,6,0.100,34535.000,0.200,23846.000,0.300,2861.000,0.500,840.000,1.000,560.000,5.000,0
"07/04/06","12:02:55","AMMA06",62197.000,"cc",28375.865,6.00,2837.587,1,6,0.100,33954.000,0.200,23832.000,0.300,2953.000,0.500,856.000,1.000,601.000,5.000,1.000
"07/04/06","12:03:01","AMMA06",62513.000,"cc",28270.479,6.00,2827.048,1,6,0.100,34014.000,0.200,24147.000,0.300,2911.000,0.500,844.000,1.000,596.000,5.000,1.000
"07/04/06","12:03:07","AMMA06",62333.000,"cc",28354.434,6.00,2835.444,1,6,0.100,33957.000,0.200,23981.000,0.300,2972.000,0.500,896.000,1.000,526.000,5.000,1.000
"07/04/06","12:03:13","AMMA06",61536.000,"cc",28356.361,6.00,2835.636,1,6,0.100,33600.000,0.200,23636.000,0.300,2902.000,0.500,839.000,1.000,558.000,5.000,1.000
"07/04/06","12:03:19","AMMA06",62261.000,"cc",28231.811,6.00,2823.181,1,6,0.100,33895.000,0.200,23964.000,0.300,3013.000,0.500,823.000,1.000,565.000,5.000,1.000
"07/04/06","12:03:25","AMMA06",62008.000,"cc",28357.002,6.00,2835.700,1,6,0.100,34157.000,0.200,23697.000,0.300,2868.000,0.500,744.000,1.000,541.000,5.000,1.000
"07/04/06","12:03:31","AMMA06",62289.000,"cc",28317.654,6.00,2831.766,1,6,0.100,34039.000,0.200,24025.000,0.300,2944.000,0.500,793.000,1.000,488.000,5.000,0
"07/04/06","12:03:37","AMMA06",62627.000,"cc",28321.080,6.00,2832.108,1,6,0.100,34531.000,0.200,23824.000,0.300,2909.000,0.500,835.000,1.000,528.000,5.000,0
"07/04/06","12:03:43","AMMA06",62462.000,"cc",28270.029,6.00,2827.003,1,6,0.100,34168.000,0.200,23944.000,0.300,2923.000,0.500,876.000,1.000,551.000,5.000,0
"07/04/06","12:03:49","AMMA06",62104.000,"cc",28343.363,6.00,2834.336,1,6,0.100,34000.000,0.200,23867.000,0.300,2851.000,0.500,833.000,1.000,553.000,5.000,0
"07/04/06","12:03:55","AMMA06",61876.000,"cc",28311.264,6.00,2831.127,1,6,0.100,33933.000,0.200,23725.000,0.300,2830.000,0.500,870.000,1.000,517.000,5.000,1.000
"07/04/06","12:04:01","AMMA06",62256.000,"cc",28325.039,6.00,2832.504,1,6,0.100,34179.000,0.200,23935.000,0.300,2776.000,0.500,860.000,1.000,505.000,5.000,1.000
"07/04/06","12:04:07","AMMA06",61799.000,"cc",28299.531,6.00,2829.953,1,6,0.100,34090.000,0.200,23567.000,0.300,2841.000,0.500,772.000,1.000,528.000,5.000,1.000
"07/04/06","12:04:13","AMMA06",62397.000,"cc",28312.826,6.00,2831.283,1,6,0.100,33965.000,0.200,24157.000,0.300,2907.000,0.500,828.000,1.000,539.000,5.000,1.000
"07/04/06","12:04:19","AMMA06",62311.000,"cc",28272.820,6.00,2827.282,1,6,0.100,34366.000,0.200,23801.000,0.300,2764.000,0.500,852.000,1.000,528.000,5.000,0
"07/04/06","12:04:25","AMMA06",62699.000,"cc",28321.068,6.00,2832.107,1,6,0.100,34676.000,0.200,23811.000,0.300,2811.000,0.500,840.000,1.000,559.000,5.000,2.000
"07/04/06","12:04:31","AMMA06",62350.000,"cc",28352.760,6.00,2835.276,1,6,0.100,34469.000,0.200,23646.000,0.300,2942.000,0.500,802.000,1.000,490.000,5.000,1.000
"07/04/06","12:04:37","AMMA06",62273.000,"cc",28317.041,6.00,2831.704,1,6,0.100,34436.000,0.200,23685.000,0.300,2775.000,0.500,826.000,1.000,549.000,5.000,2.000
"07/04/06","12:04:43","AMMA06",62903.000,"cc",28312.006,6.00,2831.201,1,6,0.100,34727.000,0.200,23930.000,0.300,2869.000,0.500,819.000,1.000,558.000,5.000,0
"07/04/06","12:04:49","AMMA06",62137.000,"cc",28319.854,6.00,2831.986,1,6,0.100,34295.000,0.200,23541.000,0.300,2954.000,0.500,795.000,1.000,550.000,5.000,2.000
"07/04/06","12:04:55","AMMA06",62577.000,"cc",28285.897,6.00,2828.590,1,6,0.100,34646.000,0.200,23775.000,0.300,2838.000,0.500,826.000,1.000,491.000,5.000,1.000
"07/04/06","12:05:01","AMMA06",62143.000,"cc",28330.977,6.00,2833.098,1,6,0.100,34367.000,0.200,23623.000,0.300,2812.000,0.500,832.000,1.000,508.000,5.000,1.000
"07/04/06","12:05:07","AMMA06",62270.000,"cc",28350.928,6.00,2835.093,1,6,0.100,34413.000,0.200,23704.000,0.300,2845.000,0.500,779.000,1.000,528.000,5.000,1.000
"07/04/06","12:05:13","AMMA06",62263.000,"cc",28349.906,6.00,2834.991,1,6,0.100,34545.000,0.200,23572.000,0.300,2723.000,0.500,876.000,1.000,547.000,5.000,0
"07/04/06","12:05:19","AMMA06",62128.000,"cc",28253.211,6.00,2825.321,1,6,0.100,34445.000,0.200,23526.000,0.300,2799.000,0.500,771.000,1.000,586.000,5.000,1.000
"07/04/06","12:05:25","AMMA06",62505.000,"cc",28308.500,6.00,2830.850,1,6,0.100,34595.000,0.200,23694.000,0.300,2822.000,0.500,799.000,1.000,595.000,5.000,0
"07/04/06","12:05:31","AMMA06",62652.000,"cc",28333.074,6.00,2833.308,1,6,0.100,34666.000,0.200,23677.000,0.300,2906.000,0.500,847.000,1.000,556.000,5.000,0
"07/04/06","12:05:37","AMMA06",62347.000,"cc",28333.982,6.00,2833.398,1,6,0.100,34687.000,0.200,23539.000,0.300,2757.000,0.500,806.000,1.000,557.000,5.000,1.000
"07/04/06","12:05:43","AMMA06",62180.000,"cc",28363.590,6.00,2836.359,1,6,0.100,34606.000,0.200,23385.000,0.300,2801.000,0.500,839.000,1.000,547.000,5.000,2.000
"07/04/06","12:05:49","AMMA06",62768.000,"cc",28333.295,6.00,2833.330,1,6,0.100,34847.000,0.200,23802.000,0.300,2719.000,0.500,846.000,1.000,553.000,5.000,1.000
"07/04/06","12:05:55","AMMA06",62436.000,"cc",28307.186,6.00,2830.719,1,6,0.100,34691.000,0.200,23538.000,0.300,2803.000,0.500,854.000,1.000,549.000,5.000,1.000
"07/04/06","12:06:01","AMMA06",62250.000,"cc",28310.170,6.00,2831.017,1,6,0.100,34357.000,0.200,23788.000,0.300,2782.000,0.500,787.000,1.000,536.000,5.000,0
"07/04/06","12:06:07","AMMA06",62526.000,"cc",28307.158,6.00,2830.716,1,6,0.100,34783.000,0.200,23631.000,0.300,2757.000,0.500,830.000,1.000,525.000,5.000,0
"07/04/06","12:06:13","AMMA06",61873.000,"cc",28302.240,6.00,2830.224,1,6,0.100,34485.000,0.200,23175.000,0.300,2776.000,0.500,874.000,1.000,562.000,5.000,1.000
"07/04/06","12:06:19","AMMA06",62681.000,"cc",28231.637,6.00,2823.164,1,6,0.100,34825.000,0.200,23739.000,0.300,2808.000,0.500,799.000,1.000,510.000,5.000,0
"07/04/06","12:06:25","AMMA06",62193.000,"cc",28359.014,6.00,2835.902,1,6,0.100,34711.000,0.200,23417.000,0.300,2740.000,0.500,815.000,1.000,509.000,5.000,1.000
"07/04/06","12:06:31","AMMA06",62640.000,"cc",28332.582,6.00,2833.258,1,6,0.100,34941.000,0.200,23481.000,0.300,2845.000,0.500,805.000,1.000,567.000,5.000,1.000
"07/04/06","12:06:37","AMMA06",62574.000,"cc",28325.850,6.00,2832.585,1,6,0.100,34750.000,0.200,23593.000,0.300,2865.000,0.500,816.000,1.000,547.000,5.000,3.000
"07/04/06","12:06:43","AMMA06",62663.000,"cc",28320.912,6.00,2832.091,1,6,0.100,34832.000,0.200,23655.000,0.300,2768.000,0.500,856.000,1.000,552.000,5.000,0
"07/04/06","12:06:49","AMMA06",62453.000,"cc",28331.012,6.00,2833.101,1,6,0.100,34489.000,0.200,23718.000,0.300,2889.000,0.500,831.000,1.000,526.000,5.000,0
"07/04/06","12:06:55","AMMA06",62620.000,"cc",28340.850,6.00,2834.085,1,6,0.100,34629.000,0.200,23843.000,0.300,2758.000,0.500,842.000,1.000,547.000,5.000,1.000
"07/04/06","12:07:01","AMMA06",62535.000,"cc",28328.779,6.00,2832.878,1,6,0.100,34574.000,0.200,23731.000,0.300,2821.000,0.500,845.000,1.000,564.000,5.000,0
"07/04/06","12:07:07","AMMA06",62442.000,"cc",28243.190,6.00,2824.319,1,6,0.100,34720.000,0.200,23578.000,0.300,2766.000,0.500,825.000,1.000,551.000,5.000,2.000
"07/04/06","12:07:13","AMMA06",61898.000,"cc",28309.975,6.00,2830.998,1,6,0.100,34248.000,0.200,23609.000,0.300,2723.000,0.500,792.000,1.000,525.000,5.000,1.000
"07/04/06","12:07:19","AMMA06",62498.000,"cc",28290.590,6.00,2829.059,1,6,0.100,34602.000,0.200,23570.000,0.300,2977.000,0.500,827.000,1.000,521.000,5.000,1.000
"07/04/06","12:07:25","AMMA06",62979.000,"cc",28336.180,6.00,2833.618,1,6,0.100,34915.000,0.200,23773.000,0.300,2903.000,0.500,828.000,1.000,560.000,5.000,0
"07/04/06","12:07:31","AMMA06",62567.000,"cc",28329.258,6.00,2832.926,1,6,0.100,34575.000,0.200,23727.000,0.300,2868.000,0.500,853.000,1.000,544.000,5.000,0
"07/04/06","12:07:37","AMMA06",62678.000,"cc",28306.393,6.00,2830.639,1,6,0.100,34611.000,0.200,23868.000,0.300,2779.000,0.500,854.000,1.000,566.000,5.000,0
"07/04/06","12:07:43","AMMA06",62465.000,"cc",28340.672,6.00,2834.067,1,6,0.100,34611.000,0.200,23642.000,0.300,2824.000,0.500,836.000,1.000,552.000,5.000,0
"07/04/06","12:07:49","AMMA06",62763.000,"cc",28343.408,6.00,2834.341,1,6,0.100,34542.000,0.200,23907.000,0.300,2880.000,0.500,866.000,1.000,568.000,5.000,0
"07/04/06","12:07:55","AMMA06",62814.000,"cc",28259.225,6.00,2825.923,1,6,0.100,34480.000,0.200,23892.000,0.300,2978.000,0.500,856.000,1.000,608.000,5.000,0
"07/04/06","12:08:01","AMMA06",62907.000,"cc",28291.900,6.00,2829.190,1,6,0.100,34559.000,0.200,24107.000,0.300,2892.000,0.500,792.000,1.000,556.000,5.000,1.000
"07/04/06","12:08:07","AMMA06",62852.000,"cc",28271.688,6.00,2827.169,1,6,0.100,34658.000,0.200,23851.000,0.300,2966.000,0.500,828.000,1.000,548.000,5.000,1.000
"07/04/06","12:08:13","AMMA06",62178.000,"cc",28362.996,6.00,2836.300,1,6,0.100,34222.000,0.200,23794.000,0.300,2826.000,0.500,807.000,1.000,529.000,5.000,0
"07/04/06","12:08:19","AMMA06",62292.000,"cc",28356.160,6.00,2835.616,1,6,0.100,34321.000,0.200,23681.000,0.300,2930.000,0.500,810.000,1.000,548.000,5.000,2.000
"07/04/06","12:08:25","AMMA06",62338.000,"cc",28321.979,6.00,2832.198,1,6,0.100,34051.000,0.200,24229.000,0.300,2779.000,0.500,761.000,1.000,517.000,5.000,1.000
"07/04/06","12:08:31","AMMA06",61948.000,"cc",28304.754,6.00,2830.476,1,6,0.100,33626.000,0.200,24012.000,0.300,2946.000,0.500,805.000,1.000,559.000,5.000,0
"07/04/06","12:08:37","AMMA06",62869.000,"cc",28317.654,6.00,2831.766,1,6,0.100,34297.000,0.200,24173.000,0.300,3006.000,0.500,813.000,1.000,580.000,5.000,0
"07/04/06","12:08:43","AMMA06",62717.000,"cc",28305.279,6.00,2830.528,1,6,0.100,34221.000,0.200,24212.000,0.300,2918.000,0.500,818.000,1.000,545.000,5.000,3.000
"07/04/06","12:08:49","AMMA06",62326.000,"cc",28306.440,6.00,2830.644,1,6,0.100,34128.000,0.200,23872.000,0.300,2925.000,0.500,864.000,1.000,537.000,5.000,0
"07/04/06","12:08:55","AMMA06",62414.000,"cc",28328.285,6.00,2832.829,1,6,0.100,33933.000,0.200,24262.000,0.300,2905.000,0.500,784.000,1.000,530.000,5.000,0
"07/04/06","12:09:01","AMMA06",62464.000,"cc",28278.807,6.00,2827.881,1,6,0.100,34191.000,0.200,23982.000,0.300,2943.000,0.500,826.000,1.000,522.000,5.000,0
"07/04/06","12:09:07","AMMA06",62277.000,"cc",28334.805,6.00,2833.481,1,6,0.100,33882.000,0.200,24023.000,0.300,2946.000,0.500,871.000,1.000,554.000,5.000,1.000
"07/04/06","12:09:13","AMMA06",62393.000,"cc",28365.166,6.00,2836.517,1,6,0.100,34025.000,0.200,24000.000,0.300,2976.000,0.500,868.000,1.000,523.000,5.000,1.000
"07/04/06","12:09:19","AMMA06",62392.000,"cc",28315.152,6.00,2831.515,1,6,0.100,33991.000,0.200,24064.000,0.300,3034.000,0.500,772.000,1.000,531.000,5.000,0
"07/04/06","12:09:25","AMMA06",62453.000,"cc",28302.594,6.00,2830.260,1,6,0.100,34049.000,0.200,24163.000,0.300,2918.000,0.500,801.000,1.000,521.000,5.000,1.000
"07/04/06","12:09:31","AMMA06",62745.000,"cc",28357.393,6.00,2835.740,1,6,0.100,34045.000,0.200,24256.000,0.300,3082.000,0.500,827.000,1.000,535.000,5.000,0
"07/04/06","12:09:37","AMMA06",62552.000,"cc",28300.004,6.00,2830.001,1,6,0.100,34086.000,0.200,24076.000,0.300,3066.000,0.500,802.000,1.000,522.000,5.000,0
"07/04/06","12:09:43","AMMA06",62326.000,"cc",28337.242,6.00,2833.724,1,6,0.100,33971.000,0.200,24011.000,0.300,2961.000,0.500,840.000,1.000,541.000,5.000,2.000
"07/04/06","12:09:49","AMMA06",62030.000,"cc",28289.070,6.00,2828.907,1,6,0.100,33982.000,0.200,23782.000,0.300,2892.000,0.500,838.000,1.000,535.000,5.000,1.000
"07/04/06","12:09:55","AMMA06",62482.000,"cc",28281.979,6.00,2828.198,1,6,0.100,33796.000,0.200,24237.000,0.300,3047.000,0.500,795.000,1.000,606.000,5.000,1.000
"07/04/06","12:10:01","AMMA06",62662.000,"cc",28363.715,6.00,2836.372,1,6,0.100,33916.000,0.200,24419.000,0.300,2985.000,0.500,778.000,1.000,562.000,5.000,2.000
"07/04/06","12:10:07","AMMA06",62298.000,"cc",28331.898,6.00,2833.190,1,6,0.100,33614.000,0.200,24244.000,0.300,3078.000,0.500,823.000,1.000,538.000,5.000,1.000
"07/04/06","12:10:13","AMMA06",62299.000,"cc",28304.590,6.00,2830.459,1,6,0.100,33845.000,0.200,24208.000,0.300,2915.000,0.500,807.000,1.000,524.000,5.000,0
"07/04/06","12:10:19","AMMA06",62244.000,"cc",28311.928,6.00,2831.193,1,6,0.100,33559.000,0.200,24381.000,0.300,2963.000,0.500,830.000,1.000,511.000,5.000,0
"07/04/06","12:10:25","AMMA06",62353.000,"cc",28329.969,6.00,2832.997,1,6,0.100,33644.000,0.200,24343.000,0.300,2995.000,0.500,787.000,1.000,583.000,5.000,1.000
"07/04/06","12:10:31","AMMA06",62070.000,"cc",28291.201,6.00,2829.120,1,6,0.100,33736.000,0.200,24007.000,0.300,2959.000,0.500,830.000,1.000,538.000,5.000,0
"07/04/06","12:10:37","AMMA06",62374.000,"cc",28312.547,6.00,2831.255,1,6,0.100,33990.000,0.200,24098.000,0.300,2919.000,0.500,804.000,1.000,563.000,5.000,0
"07/04/06","12:10:43","AMMA06",62411.000,"cc",28327.334,6.00,2832.734,1,6,0.100,33964.000,0.200,24087.000,0.300,2978.000,0.500,800.000,1.000,582.000,5.000,0
"07/04/06","12:10:49","AMMA06",62318.000,"cc",28311.801,6.00,2831.180,1,6,0.100,34111.000,0.200,23909.000,0.300,2930.000,0.500,830.000,1.000,538.000,5.000,0
"07/04/06","12:10:55","AMMA06",62292.000,"cc",28340.623,6.00,2834.063,1,6,0.100,33880.000,0.200,24130.000,0.300,2977.000,0.500,804.000,1.000,501.000,5.000,0
"07/04/06","12:11:01","AMMA06",62338.000,"cc",28310.166,6.00,2831.017,1,6,0.100,33916.000,0.200,24070.000,0.300,2978.000,0.500,800.000,1.000,574.000,5.000,0
"07/04/06","12:11:07","AMMA06",62603.000,"cc",28330.281,6.00,2833.028,1,6,0.100,34284.000,0.200,24063.000,0.300,2872.000,0.500,813.000,1.000,570.000,5.000,1.000
"07/04/06","12:11:13","AMMA06",62275.000,"cc",28299.477,6.00,2829.948,1,6,0.100,33957.000,0.200,23949.000,0.300,2944.000,0.500,852.000,1.000,572.000,5.000,1.000
"07/04/06","12:11:19","AMMA06",61946.000,"cc",28326.846,6.00,2832.685,1,6,0.100,33919.000,0.200,23740.000,0.300,2888.000,0.500,813.000,1.000,585.000,5.000,1.000
"07/04/06","12:11:25","AMMA06",62225.000,"cc",28251.666,6.00,2825.167,1,6,0.100,34109.000,0.200,23922.000,0.300,2870.000,0.500,782.000,1.000,542.000,5.000,0
"07/04/06","12:11:31","AMMA06",61921.000,"cc",28324.881,6.00,2832.488,1,6,0.100,33876.000,0.200,23698.000,0.300,2981.000,0.500,822.000,1.000,543.000,5.000,1.000
"07/04/06","12:11:37","AMMA06",61855.000,"cc",28321.869,6.00,2832.187,1,6,0.100,33827.000,0.200,23896.000,0.300,2800.000,0.500,825.000,1.000,507.000,5.000,0
"07/04/06","12:11:43","AMMA06",62403.000,"cc",28299.522,6.00,2829.952,1,6,0.100,34370.000,0.200,23836.000,0.300,2912.000,0.500,794.000,1.000,491.000,5.000,0
"07/04/06","12:11:49","AMMA06",61808.000,"cc",28317.475,6.00,2831.748,1,6,0.100,34052.000,0.200,23588.000,0.300,2833.000,0.500,809.000,1.000,525.000,5.000,1.000
"07/04/06","12:11:55","AMMA06",61977.000,"cc",28321.963,6.00,2832.197,1,6,0.100,34206.000,0.200,23586.000,0.300,2816.000,0.500,832.000,1.000,537.000,5.000,0
"07/04/06","12:12:01","AMMA06",62064.000,"cc",28310.340,6.00,2831.034,1,6,0.100,34495.000,0.200,23314.000,0.300,2936.000,0.500,803.000,1.000,515.000,5.000,1.000
"07/04/06","12:12:07","AMMA06",62267.000,"cc",28380.152,6.00,2838.015,1,6,0.100,34437.000,0.200,23631.000,0.300,2886.000,0.500,790.000,1.000,523.000,5.000,0
"07/04/06","12:12:13","AMMA06",61700.000,"cc",28322.565,6.00,2832.257,1,6,0.100,34236.000,0.200,23240.000,0.300,2890.000,0.500,785.000,1.000,549.000,5.000,0
"07/04/06","12:12:19","AMMA06",61919.000,"cc",28277.467,6.00,2827.747,1,6,0.100,34287.000,0.200,23633.000,0.300,2763.000,0.500,763.000,1.000,473.000,5.000,0
"07/04/06","12:12:25","AMMA06",62135.000,"cc",28341.297,6.00,2834.130,1,6,0.100,34584.000,0.200,23414.000,0.300,2790.000,0.500,813.000,1.000,533.000,5.000,1.000
"07/04/06","12:12:31","AMMA06",62001.000,"cc",28304.440,6.00,2830.444,1,6,0.100,34576.000,0.200,23327.000,0.300,2733.000,0.500,799.000,1.000,565.000,5.000,1.000
"07/04/06","12:12:37","AMMA06",62070.000,"cc",28327.162,6.00,2832.716,1,6,0.100,34302.000,0.200,23548.000,0.300,2893.000,0.500,801.000,1.000,525.000,5.000,1.000
"07/04/06","12:12:43","AMMA06",62152.000,"cc",28337.207,6.00,2833.721,1,6,0.100,34613.000,0.200,23332.000,0.300,2870.000,0.500,829.000,1.000,508.000,5.000,0
"07/04/06","12:12:49","AMMA06",61606.000,"cc",28275.016,6.00,2827.502,1,6,0.100,34501.000,0.200,23035.000,0.300,2731.000,0.500,818.000,1.000,521.000,5.000,0
"07/04/06","12:12:55","AMMA06",61851.000,"cc",28304.525,6.00,2830.453,1,6,0.100,34600.000,0.200,23034.000,0.300,2783.000,0.500,898.000,1.000,534.000,5.000,2.000
"07/04/06","12:13:01","AMMA06",62026.000,"cc",28303.463,6.00,2830.346,1,6,0.100,34554.000,0.200,23229.000,0.300,2907.000,0.500,770.000,1.000,566.000,5.000,0
"07/04/06","12:13:07","AMMA06",61474.000,"cc",28364.844,6.00,2836.485,1,6,0.100,34338.000,0.200,22969.000,0.300,2834.000,0.500,805.000,1.000,526.000,5.000,2.000
"07/04/06","12:13:13","AMMA06",61841.000,"cc",28322.662,6.00,2832.266,1,6,0.100,34400.000,0.200,23197.000,0.300,2849.000,0.500,806.000,1.000,589.000,5.000,0
"07/04/06","12:13:19","AMMA06",62102.000,"cc",28271.527,6.00,2827.153,1,6,0.100,34596.000,0.200,23329.000,0.300,2773.000,0.500,846.000,1.000,558.000,5.000,0
"07/04/06","12:13:25","AMMA06",61603.000,"cc",28334.717,6.00,2833.472,1,6,0.100,34534.000,0.200,23017.000,0.300,2770.000,0.500,780.000,1.000,502.000,5.000,0
"07/04/06","12:13:31","AMMA06",61899.000,"cc",28308.818,6.00,2830.882,1,6,0.100,34732.000,0.200,23090.000,0.300,2758.000,0.500,796.000,1.000,522.000,5.000,1.000
"07/04/06","12:13:37","AMMA06",62034.000,"cc",28303.018,6.00,2830.302,1,6,0.100,34912.000,0.200,23006.000,0.300,2778.000,0.500,800.000,1.000,537.000,5.000,1.000
"07/04/06","12:13:43","AMMA06",62245.000,"cc",28330.180,6.00,2833.018,1,6,0.100,34705.000,0.200,23420.000,0.300,2780.000,0.500,814.000,1.000,526.000,5.000,0
"07/04/06","12:13:49","AMMA06",61823.000,"cc",28311.391,6.00,2831.139,1,6,0.100,34664.000,0.200,23074.000,0.300,2759.000,0.500,801.000,1.000,524.000,5.000,1.000
"07/04/06","12:13:55","AMMA06",62020.000,"cc",28336.078,6.00,2833.608,1,6,0.100,34629.000,0.200,23267.000,0.300,2753.000,0.500,816.000,1.000,555.000,5.000,0
"07/04/06","12:14:01","AMMA06",62044.000,"cc",28311.338,6.00,2831.134,1,6,0.100,34596.000,0.200,23278.000,0.300,2807.000,0.500,830.000,1.000,533.000,5.000,0